KTXEAGLE7 Weather Reports


time (UTC)temp
F
wind
direction
speed
knots
gust
knots
rain 1hr
in
rain 24hr
in
rain mn
in
humidity
%
barometer
mb
20260831100055 76 277 0.0 0.0 0.00 0.00 0.00 99 1015.7
20260831094606 75 273 0.0 0.0 0.00 0.00 0.00 98 1015.6
20260831093054 75 193 0.0 0.0 0.00 0.00 0.00 98 1015.4
20260831091559 75 105 0.0 0.0 0.00 0.00 0.00 98 1015.4
20260831090052 75 105 0.0 0.0 0.00 0.00 0.00 98 1015.4
20260831084554 75 105 0.0 0.0 0.00 0.00 0.00 98 1015.6
20260831083055 75 105 0.0 0.0 0.00 0.00 0.00 98 1015.7
20260831081557 75 105 0.0 0.0 0.00 0.00 0.00 97 1015.5
20260831080050 75 105 0.0 0.0 0.00 0.00 0.00 97 1015.7
20260831074548 75 105 0.0 0.0 0.00 0.00 0.00 97 1015.7
20260831073047 75 105 0.0 0.0 0.00 0.00 0.00 96 1015.8
20260831071544 76 105 0.0 0.0 0.00 0.00 0.00 96 1016.0
20260831070107 76 105 0.0 0.0 0.00 0.00 0.00 96 1016.1
20260831064542 76 105 0.0 0.0 0.00 0.00 0.00 96 1016.1
20260831063041 76 105 0.0 0.0 0.00 0.00 0.00 95 1016.1
20260831061540 76 105 0.0 0.0 0.00 0.00 0.00 95 1016.2
20260831060047 76 180 0.0 0.0 0.00 0.00 0.00 95 1016.1
20260831054537 76 180 0.0 0.0 0.00 0.00 0.00 95 1016.2
20260831053037 76 180 0.0 2.6 0.00 0.00 0.00 95 1016.1
20260831051549 77 180 0.9 2.6 0.00 0.00 0.00 94 1016.0
20260831050036 77 180 1.7 2.6 0.00 0.00 0.00 94 1015.9
20260831044535 77 180 1.7 3.5 0.00 0.00 0.00 93 1016.0
20260831043034 77 148 0.0 1.7 0.00 0.00 0.00 93 1015.8
20260831041535 78 148 0.9 1.7 0.00 0.00 0.00 92 1015.8
20260831040043 78 148 0.0 1.7 0.00 0.00 0.00 92 1015.8
20260831034530 78 148 0.0 2.6 0.00 0.00 0.00 91 1015.8
20260831033032 79 148 0.9 2.6 0.00 0.00 0.00 90 1015.6
20260831031530 79 148 1.7 4.3 0.00 0.00 0.00 89 1015.6
20260831030030 79 155 1.7 4.3 0.00 0.00 0.00 88 1015.2
20260831024529 80 155 1.7 3.5 0.00 0.00 0.00 86 1015.1
20260831023037 81 151 4.3 7.0 0.00 0.00 0.00 84 1014.8
20260831021547 81 140 3.5 7.0 0.00 0.00 0.00 83 1014.7
20260831020028 82 138 6.1 8.7 0.00 0.00 0.00 81 1014.4
20260831014527 83 144 3.5 7.8 0.00 0.00 0.00 81 1014.2
20260831013027 84 152 4.3 7.0 0.00 0.00 0.00 79 1014.0
20260831011527 85 153 5.2 9.6 0.00 0.00 0.00 76 1014.0
20260831010041 85 168 6.1 9.6 0.00 0.00 0.00 76 1014.0
20260831004525 86 145 3.5 7.0 0.00 0.00 0.00 74 1013.9
20260831003025 88 141 6.1 9.6 0.00 0.00 0.00 69 1013.6
20260831001534 89 132 6.1 11.3 0.00 0.00 0.00 67 1013.6
20260831000024 90 129 8.7 13.9 0.00 0.00 0.00 64 1013.5
20260830234523 91 144 7.0 13.0 0.00 0.00 0.00 66 1013.5
20260830233023 92 155 10.4 15.6 0.00 0.00 0.00 62 1013.5
20260830231528 90 150 5.2 8.7 0.00 0.00 0.00 69 1013.5
20260830230021 88 173 2.6 5.2 0.00 0.00 0.00 72 1013.5
20260830224521 89 164 3.5 6.1 0.00 0.00 0.00 70 1013.7
20260830223023 89 176 4.3 8.7 0.00 0.00 0.00 69 1013.6
20260830221520 90 176 5.2 9.6 0.00 0.00 0.00 67 1013.7
20260830220022 90 165 5.2 14.8 0.00 0.00 0.00 67 1013.7
20260830214517 91 153 7.8 13.9 0.00 0.00 0.00 64 1013.7
20260830213015 94 128 10.4 18.2 0.00 0.00 0.00 54 1013.8
20260830211521 95 113 5.2 9.6 0.00 0.00 0.00 56 1014.0
20260830210014 94 107 4.3 9.6 0.00 0.00 0.00 52 1014.1
20260830204510 94 142 2.6 9.6 0.00 0.00 0.00 51 1014.3
20260830203012 95 30 0.0 4.3 0.00 0.00 0.00 52 1014.3
20260830201505 95 96 0.9 8.7 0.00 0.00 0.00 55 1014.8
20260830200001 95 78 1.7 5.2 0.00 0.00 0.00 57 1015.0
20260830194559 94 281 1.7 4.3 0.00 0.00 0.00 58 1015.2
20260830193056 93 102 2.6 11.3 0.00 0.00 0.00 60 1015.6
20260830191557 92 168 3.5 11.3 0.00 0.00 0.00 59 1015.7
20260830190050 92 153 2.6 6.1 0.00 0.00 0.00 62 1016.1
20260830184549 92 134 1.7 7.0 0.00 0.00 0.00 64 1016.2
20260830183054 91 163 2.6 7.8 0.00 0.00 0.00 66 1016.4
20260830181549 91 192 4.3 9.6 0.00 0.00 0.00 66 1016.7
20260830180054 90 151 4.3 7.8 0.00 0.00 0.00 66 1016.9
20260830174547 89 69 2.6 4.3 0.00 0.00 0.00 71 1017.0
20260830173057 88 212 2.6 7.0 0.00 0.00 0.00 72 1017.2
20260830171548 89 348 0.9 5.2 0.00 0.00 0.00 74 1017.4
20260830170034 87 215 0.9 6.1 0.00 0.00 0.00 77 1017.6
20260830164533 87 244 2.6 7.0 0.00 0.00 0.00 78 1017.8
20260830163029 86 227 2.6 6.1 0.00 0.00 0.00 79 1017.9
20260830161527 85 257 2.6 6.1 0.00 0.00 0.00 82 1017.8
20260830160031 85 194 2.6 4.3 0.00 0.00 0.00 83 1017.7
20260830154523 84 221 0.0 5.2 0.00 0.00 0.00 85 1017.8
20260830153020 83 141 2.6 6.1 0.00 0.00 0.00 89 1017.9
20260830151520 82 312 1.7 3.5 0.00 0.00 0.00 92 1017.8
20260830150014 82 319 0.0 3.5 0.00 0.00 0.00 95 1017.7
20260830144516 81 331 0.9 3.5 0.00 0.00 0.00 98 1017.8
20260830143011 79 47 0.9 3.5 0.00 0.00 0.00 99 1017.8
20260830141507 79 79 0.9 5.2 0.00 0.00 0.00 100 1017.7
20260830140004 78 81 1.7 5.2 0.00 0.00 0.00 100 1017.7
20260830134503 77 68 1.7 3.5 0.00 0.00 0.00 100 1017.6
20260830133103 77 65 2.6 5.2 0.00 0.00 0.00 100 1017.5
20260830131615 76 67 1.7 5.2 0.00 0.00 0.00 100 1017.4
20260830130104 75 99 1.7 3.5 0.00 0.00 0.00 100 1017.2
20260830124556 75 47 1.7 3.5 0.00 0.00 0.00 99 1017.1
20260830123056 75 78 0.9 2.6 0.00 0.00 0.00 99 1016.9
20260830121555 75 139 0.0 0.0 0.00 0.00 0.00 100 1016.8
20260830120053 75 196 0.0 0.9 0.00 0.00 0.00 99 1016.5
20260830114554 75 196 0.0 0.0 0.00 0.00 0.00 99 1016.5
20260830113051 75 196 0.0 0.0 0.00 0.00 0.00 99 1016.4
20260830111551 75 196 0.0 0.0 0.00 0.00 0.00 99 1016.3
20260830110107 75 196 0.0 0.0 0.00 0.00 0.00 99 1016.5
20260830104549 75 196 0.0 0.0 0.00 0.00 0.00 99 1016.3
20260830103049 75 196 0.0 0.9 0.00 0.00 0.00 99 1016.2
20260830101548 75 196 0.0 0.0 0.00 0.00 0.00 98 1016.3